Regional Weather Roundup
Issued by NWS Charleston, WV

Home | Current Version | Previous Version | Graphics & Text | Print | Product List | Glossary On
Versions: 1 2 3 4 5 6 7 8 9 10 11 12 13 14 15 16 17 18 19 20 21 22 23 24 25 26 27
000
ASUS41 KRLX 180610
RWRRLX
West Virginia Regional Weather Roundup
National Weather Service Charleston WV
200 AM EDT FRI APR 18 2014

Note: "fair" indicates few or no clouds below 12,000 feet with no
significant weather and/or obstructions to visibility.

WVZ003-180700-
Northern Panhandle of West Virginia

CITY           SKY/WX    TMP DP  RH WIND       PRES   REMARKS
WHEELING         N/A     47  27  45 SE7       30.32F
$$

WVZ009-180700-
Northwest West Virginia

CITY           SKY/WX    TMP DP  RH WIND       PRES   REMARKS
PARKERSBURG      N/A     52  24  33 SE5       30.33S
$$

WVZ006-180700-
Western West Virginia

CITY           SKY/WX    TMP DP  RH WIND       PRES   REMARKS
HUNTINGTON       N/A     54  25  32 VRB6      30.28S
$$

WVZ015-180700-
West Central West Virginia

CITY           SKY/WX    TMP DP  RH WIND       PRES   REMARKS
CHARLESTON       N/A     53  24  32 SE9       30.31S
$$

WVZ031-180700-
North Central West Virginia

CITY           SKY/WX    TMP DP  RH WIND       PRES   REMARKS
CLARKSBURG       N/A     49  24  37 SE6       30.33F
MORGANTOWN       N/A     48  23  37 SE6       30.34F
$$

WVZ035-042-045-180700-
South Central West Virginia

CITY           SKY/WX    TMP DP  RH WIND       PRES   REMARKS
BECKLEY          N/A     45  21  38 SE10G21   30.36F
BLUEFIELD        N/A     47  21  35 MISG      30.36F
LEWISBURG        N/A     34  24  67 CALM      30.40F
$$

WVZ047-180700-
Northern Mountains of West Virginia

CITY           SKY/WX    TMP DP  RH WIND       PRES   REMARKS
ELKINS           N/A     37  23  56 SE3       30.36F
$$

WVZ052-180700-
Eastern Panhandle of West Virginia

CITY           SKY/WX    TMP DP  RH WIND       PRES   REMARKS
MARTINSBURG      N/A     39  30  70 SE6       30.51F
PETERSBURG       N/A     37  33  89 CALM      30.44F
$$



USA.gov is the U.S. government's official web portal to all federal, state and local government web resources and services.